TimeEST,TemperatureF,Dew PointF,Humidity,Sea Level PressureIn,VisibilityMPH,Wind Direction,Wind SpeedMPH,Gust SpeedMPH,PrecipitationIn,Events,Conditions,WindDirDegrees,DateUTC
12:45 AM,60.8,57.2,88,30.13,5.0,WNW,21.9,36.8,0.06,Rain,Heavy Rain,290,2012-11-13 05:45:00
12:52 AM,51.8,50.0,94,30.15,3.0,NW,28.8,41.4,0.14,Rain,Heavy Rain,310,2012-11-13 05:52:00
12:53 AM,52.0,50.0,93,30.16,3.0,NW,26.5,41.4,0.15,Rain,Heavy Rain,310,2012-11-13 05:53:00
1:00 AM,51.8,48.2,88,30.16,4.0,WNW,21.9,35.7,0.03,Rain,Heavy Rain,300,2012-11-13 06:00:00
1:15 AM,51.8,48.2,88,30.18,10.0,WNW,15.0,23.0,0.04,Rain,Light Rain,300,2012-11-13 06:15:00
1:54 AM,50.0,46.0,86,30.22,10.0,WNW,11.5,-,0.05,,Overcast,300,2012-11-13 06:54:00
2:54 AM,46.9,44.1,90,30.24,10.0,WNW,12.7,-,0.01,Rain,Light Rain,290,2012-11-13 07:54:00
3:54 AM,46.0,45.0,96,30.25,8.0,NW,8.1,-,0.03,Rain,Light Rain,310,2012-11-13 08:54:00
4:02 AM,46.4,44.6,93,30.24,10.0,WNW,8.1,-,0.00,Rain,Light Rain,300,2012-11-13 09:02:00
4:52 AM,46.4,42.8,87,30.26,10.0,WNW,11.5,-,0.03,Rain,Light Rain,290,2012-11-13 09:52:00
4:54 AM,46.0,43.0,89,30.27,10.0,WNW,11.5,-,0.03,Rain,Light Rain,300,2012-11-13 09:54:00
5:54 AM,44.1,41.0,89,30.30,7.0,NW,13.8,21.9,0.03,Rain,Rain,320,2012-11-13 10:54:00
7:01 AM,41.0,39.2,93,30.32,6.0,NNW,9.2,-,N/A,Rain,Light Rain,330,2012-11-13 12:01:00
7:54 AM,39.9,37.9,93,30.36,6.0,North,4.6,-,N/A,Rain,Light Rain,350,2012-11-13 12:54:00
8:14 AM,39.2,37.4,93,30.35,10.0,WNW,5.8,-,0.02,Rain,Light Rain,290,2012-11-13 13:14:00
8:54 AM,41.0,37.0,86,30.37,10.0,NW,8.1,-,0.02,Rain,Light Rain,320,2012-11-13 13:54:00
9:54 AM,43.0,37.9,82,30.38,10.0,NW,12.7,-,0.00,,Mostly Cloudy,310,2012-11-13 14:54:00
10:54 AM,44.1,36.0,73,30.38,10.0,WNW,16.1,19.6,N/A,,Mostly Cloudy,300,2012-11-13 15:54:00
11:54 AM,43.0,32.0,65,30.36,10.0,NW,13.8,-,N/A,,Mostly Cloudy,320,2012-11-13 16:54:00
12:01 PM,44.6,32.0,61,30.34,10.0,NW,12.7,-,N/A,,Clear,320,2012-11-13 17:01:00
12:54 PM,46.9,30.9,54,30.35,10.0,North,11.5,20.7,N/A,,Clear,350,2012-11-13 17:54:00
1:54 PM,48.0,28.9,48,30.35,10.0,NW,11.5,-,N/A,,Clear,320,2012-11-13 18:54:00
2:54 PM,48.0,30.0,50,30.35,10.0,NNW,11.5,-,N/A,,Clear,340,2012-11-13 19:54:00
3:54 PM,46.9,30.9,54,30.36,10.0,NNW,9.2,-,N/A,,Partly Cloudy,330,2012-11-13 20:54:00
4:54 PM,43.0,30.0,60,30.38,10.0,NW,8.1,-,N/A,,Mostly Cloudy,320,2012-11-13 21:54:00
5:54 PM,42.1,28.9,60,30.41,10.0,NNW,6.9,-,N/A,,Partly Cloudy,340,2012-11-13 22:54:00
6:54 PM,43.0,28.9,58,30.43,10.0,NNW,9.2,-,N/A,,Overcast,340,2012-11-13 23:54:00
7:54 PM,41.0,27.0,57,30.46,10.0,North,6.9,-,N/A,,Mostly Cloudy,350,2012-11-14 00:54:00
8:54 PM,42.1,27.0,55,30.48,10.0,North,3.5,-,N/A,,Overcast,10,2012-11-14 01:54:00
9:54 PM,41.0,30.0,65,30.48,10.0,NNE,5.8,-,N/A,,Overcast,20,2012-11-14 02:54:00
10:54 PM,39.9,28.0,63,30.49,10.0,NNE,6.9,-,N/A,,Overcast,20,2012-11-14 03:54:00
11:54 PM,39.9,28.0,63,30.49,10.0,NE,5.8,-,N/A,,Overcast,40,2012-11-14 04:54:00